[[{"header":{"parameterUnit":"m.s-1","parameterCategory":1,"la1":30.2991,"la2":30.254,"lo1":-89.0895,"lo2":-89.0444,"dy":0.0017,"dx":0.0017,"nx":28,"ny":28,"refTime":"2024-04-23T09:00:00:Z","depth":0,"parameterNumber":2,"parameterNumberName":"U-component_of_WINDS"},"data":[0,0,0,0,0,0,0,0,0,0,0,0,0,0,0,0,0,0,0,0,0,0,0,0,0,0,0,0,0,0,0,0,0,0,0,0,0,0,0,0,0,0,0,0,0,0,0,0,0,0,0,0,0,0,0,0,0,0,0.5472,0.5472,0,0.5447,0.5447,0.5446,0.5423,0.5423,0.5422,0.5422,0.5396,0.5396,0.5395,0,0,0,0,0,0,0,0,0,0,0,0,0,0.5499,0.5498,0.5472,0.5472,0.5472,0.5447,0.5447,0.5446,0.5423,0.5423,0.5422,0.5422,0.5396,0.5396,0.5395,0,0,0,0,0,0,0,0,0,0,0,0,0,0.5482,0.5498,0.5472,0.5457,0.5455,0.5447,0.5447,0.5446,0.5423,0.5423,0.5422,0.5422,0.5397,0.5396,0.5395,0.54,0,0,0.5393,0.5393,0,0,0,0,0,0,0,0,0.5483,0.5481,0.546,0.5458,0.5456,0.5438,0.5446,0.5431,0.5423,0.5435,0.5422,0.5422,0.541,0.5409,0.5405,0.5399,0.5398,0.5393,0.5393,0.5393,0.5393,0,0,0,0,0,0,0,0.5484,0.5482,0.5462,0.5459,0.5457,0.5451,0.5448,0.5443,0.5426,0.5434,0.5433,0.543,0.5409,0.5405,0.5404,0.5397,0.5393,0.5393,0.5392,0.5392,0.5392,0.5392,0,0,0,0,0,0,0.5488,0.5483,0.5463,0.5461,0.5469,0.5451,0.5448,0.5444,0.5426,0.5422,0.543,0.5429,0.5407,0.5405,0.5403,0.5406,0.5393,0.5392,0.5392,0.5391,0.5392,0.5392,0,0,0,0,0,0,0.5488,0.5486,0.5464,0.5472,0.5468,0.5451,0.5447,0.5444,0.544,0.5423,0.5419,0.543,0.5406,0.5404,0.54,0.5404,0.5392,0.5391,0.5391,0.5391,0.5392,0.5412,0,0,0,0,0,0,0.5489,0.5486,0.5489,0.5472,0.5468,0.5462,0.5447,0.5444,0.5439,0.5437,0.5421,0.5418,0.5406,0.5401,0.54,0.5403,0.5391,0.539,0.5391,0.5392,0.5411,0.5413,0.5415,0,0,0,0,0,0.549,0.5496,0.5489,0.5486,0.547,0.5463,0.546,0.5446,0.5439,0.5441,0.5429,0.5418,0.5405,0.5401,0.5399,0.5403,0.539,0.5391,0.5392,0.541,0.5413,0.5415,0,0,0,0,0,0,0.5514,0.5493,0.5485,0.5486,0.5476,0.5459,0.546,0.545,0.5442,0.5441,0.5423,0.542,0.5418,0.541,0.5407,0.5405,0.5396,0.5396,0.541,0.5413,0.5415,0.5417,0.539,0,0,0,0,0,0.5519,0.5515,0.5497,0.5499,0.5494,0.5478,0.5474,0.5464,0.5453,0.5449,0.5438,0.5427,0.542,0.5416,0.5409,0.541,0.5405,0.5411,0.5413,0.5415,0.5415,0.5413,0.5415,0.5395,0.5395,0.5395,0,0,0.5529,0.5518,0.5516,0.5503,0.5494,0.549,0.5475,0.5471,0.5467,0.5449,0.5444,0.5435,0.5423,0.5421,0.5419,0.5414,0.542,0.5416,0.5418,0.5417,0.5414,0.5416,0.5418,0.5395,0.5395,0.5395,0,0,0.5546,0.5538,0.5537,0.5529,0.5515,0.5504,0.5504,0.5488,0.5481,0.5477,0.5462,0.5457,0.5446,0.5437,0.5431,0.5443,0.5432,0.5441,0.5452,0.545,0.5451,0.5453,0.5455,0.5457,0.5441,0.5441,0.5441,0,0.5561,0.5554,0.5539,0.5535,0.5529,0.5512,0.551,0.5503,0.5488,0.5484,0.5478,0.5463,0.5453,0.5448,0.5451,0.5447,0.5445,0.5442,0.5452,0.5454,0.5455,0.5457,0.5458,0.5442,0.5442,0.5442,0.5442,0,0.5572,0.5567,0.5568,0.5553,0.5548,0.5545,0.5529,0.5525,0.5515,0.5504,0.5499,0.5487,0.5476,0.5474,0.5465,0.5467,0.5464,0.5456,0.5446,0.5458,0.546,0.5461,0.5444,0.5444,0.5443,0.5443,0,0,0.5603,0.5579,0.5579,0.5572,0.5555,0.5551,0.5547,0.5536,0.5533,0.5523,0.5518,0.5509,0.55,0.5493,0.5483,0.5481,0.5489,0.5473,0.5472,0.5475,0.5489,0.5495,0.5496,0.5482,0.5482,0.5483,0.549,0,0.5615,0.5608,0.5594,0.5591,0.5585,0.5568,0.5564,0.5553,0.5543,0.5536,0.5525,0.5518,0.5508,0.5503,0.5501,0.5489,0.5492,0.5488,0.5477,0.5477,0.548,0.5498,0.5504,0.5512,0.5491,0.5491,0.5491,0,0.563,0.562,0.5616,0.5599,0.5596,0.5593,0.5581,0.5575,0.5562,0.5554,0.5546,0.5534,0.5528,0.5519,0.551,0.5508,0.5503,0.5496,0.5496,0.5494,0.5484,0.5495,0.5514,0.5515,0.5492,0.5492,0.5492,0,0.5651,0.5637,0.5632,0.5627,0.5606,0.5605,0.5596,0.5582,0.5576,0.5566,0.5561,0.555,0.5544,0.5536,0.5521,0.5516,0.5513,0.5503,0.5506,0.5506,0.5505,0.5505,0.5523,0.5504,0.5504,0.5504,0.5504,0,0.5666,0.5664,0.5641,0.5638,0.5635,0.5618,0.5615,0.5605,0.5593,0.5587,0.5572,0.5567,0.5548,0.554,0.5529,0.5522,0.552,0.5513,0.551,0.5514,0.5514,0.5509,0.5508,0.5504,0.5504,0.5504,0.5504,0,0.5689,0.5674,0.5667,0.5648,0.5643,0.5642,0.5625,0.5621,0.561,0.5602,0.56,0.5581,0.5572,0.5556,0.5541,0.5533,0.5529,0.5524,0.5533,0.5531,0.5534,0.5533,0.5548,0.5548,0.553,0.553,0.553,0,0.5699,0.5697,0.5677,0.5672,0.5664,0.5656,0.565,0.5633,0.5626,0.561,0.5608,0.5597,0.5587,0.5572,0.5557,0.5545,0.554,0.5545,0.5538,0.5541,0.5538,0.5538,0.5537,0.5547,0.5547,0.5548,0.5548,0,0.5718,0.571,0.5701,0.569,0.5682,0.5672,0.5661,0.5658,0.5638,0.5632,0.5621,0.5613,0.5598,0.5587,0.5573,0.5563,0.5552,0.555,0.555,0.5554,0.5559,0.5555,0.5537,0.555,0.555,0.555,0.5549,0.5549,0.5734,0.573,0.5716,0.5706,0.5696,0.5686,0.5681,0.5668,0.5659,0.5645,0.5636,0.5625,0.5611,0.5591,0.5582,0.5573,0.5569,0.5569,0.5568,0.5568,0.5569,0.5561,0.5571,0.5571,0.5571,0.5571,0.5571,0,0.5751,0.574,0.5732,0.5716,0.5708,0.5698,0.5685,0.5679,0.567,0.5658,0.5648,0.5635,0.5624,0.5608,0.5595,0.5591,0.5585,0.5588,0.5588,0.5586,0.5575,0.5576,0.5593,0.5593,0.5593,0.5593,0.5593,0.5593,0.5759,0.5752,0.5743,0.573,0.572,0.571,0.5703,0.5693,0.5683,0.5669,0.5659,0.5649,0.5635,0.5621,0.5609,0.5605,0.56,0.5605,0.5598,0.5589,0.5587,0.5585,0.5585,0.5604,0.5604,0.561,0.561,0.561]},{"header":{"parameterUnit":"m.s-1","parameterCategory":1,"la1":30.2991,"la2":30.254,"lo1":-89.0895,"lo2":-89.0444,"dy":0.0017,"dx":0.0017,"nx":28,"ny":28,"refTime":"2024-04-23T09:00:00:Z","depth":0,"parameterNumber":3,"parameterNumberName":"V-component_of_WINDS"},"data":[0,0,0,0,0,0,0,0,0,0,0,0,0,0,0,0,0,0,0,0,0,0,0,0,0,0,0,0,0,0,0,0,0,0,0,0,0,0,0,0,0,0,0,0,0,0,0,0,0,0,0,0,0,0,0,0,0,0,4.9296,4.9297,0,4.9392,4.9393,4.9394,4.935,4.9348,4.9346,4.9343,4.9437,4.9441,4.9446,0,0,0,0,0,0,0,0,0,0,0,0,0,4.9069,4.9074,4.9296,4.9298,4.9299,4.9392,4.9393,4.9394,4.9351,4.9348,4.9345,4.9342,4.9435,4.9441,4.9446,0,0,0,0,0,0,0,0,0,0,0,0,0,4.9167,4.9075,4.9296,4.9288,4.9289,4.9391,4.9393,4.9395,4.9351,4.9348,4.9344,4.9341,4.9433,4.944,4.9447,4.9562,0,0,4.9468,4.9472,0,0,0,0,0,0,0,0,4.9161,4.9175,4.9288,4.9289,4.9289,4.9356,4.9347,4.9451,4.9352,4.9327,4.9343,4.9339,4.9412,4.9421,4.9446,4.9566,4.957,4.9469,4.9473,4.9476,4.9478,0,0,0,0,0,0,0,4.9154,4.9171,4.9334,4.929,4.9291,4.9278,4.9288,4.9366,4.9388,4.9329,4.9326,4.9338,4.9412,4.944,4.9448,4.9572,4.9469,4.9475,4.948,4.9482,4.9785,4.9789,0,0,0,0,0,0,4.9149,4.9165,4.9331,4.9337,4.9215,4.9285,4.9296,4.9338,4.9387,4.9392,4.9341,4.9336,4.9429,4.944,4.9451,4.9585,4.9476,4.9483,4.9487,4.9781,4.9786,4.979,0,0,0,0,0,0,4.9144,4.9164,4.9327,4.925,4.927,4.9292,4.934,4.9342,4.9369,4.9397,4.94,4.9366,4.9427,4.9441,4.9534,4.9588,4.9486,4.9493,4.9777,4.9783,4.9788,4.9857,0,0,0,0,0,0,4.9138,4.9163,4.9208,4.9252,4.9274,4.941,4.9344,4.9346,4.9382,4.9376,4.9421,4.9425,4.9425,4.9523,4.9541,4.9596,4.9498,4.9772,4.9779,4.9786,4.985,4.9864,4.9876,0,0,0,0,0,4.913,4.9224,4.9211,4.9231,4.9332,4.9414,4.9426,4.9426,4.9387,4.9431,4.9448,4.9423,4.958,4.9533,4.9552,4.961,4.9768,4.9777,4.9785,4.9843,4.9861,4.9876,0,0,0,0,0,0,4.9186,4.923,4.9216,4.9327,4.9367,4.9406,4.9463,4.9446,4.9497,4.9489,4.9485,4.9495,4.959,4.961,4.9557,4.9722,4.9668,4.968,4.9705,4.9722,4.9735,4.9727,4.9504,0,0,0,0,0,4.9211,4.9275,4.931,4.9404,4.9425,4.9441,4.9476,4.9472,4.9513,4.9529,4.9553,4.9592,4.9649,4.9687,4.9742,4.9853,4.9859,4.9902,4.9915,4.9926,4.9936,4.9992,5.001,4.9818,4.9818,4.9818,0,0,4.9264,4.9296,4.9337,4.9416,4.9447,4.951,4.9455,4.9526,4.9572,4.954,4.9628,4.9646,4.9689,4.979,4.9836,4.9809,4.9991,4.9937,4.9945,4.995,5.0002,5.002,5.0036,4.9824,4.9823,4.9822,0,0,4.9392,4.9425,4.9505,4.9536,4.9583,4.9592,4.9612,4.9653,4.9664,4.9753,4.9728,4.9783,4.9883,4.9913,4.9942,5.0078,5.0055,5.0096,5.0165,5.0219,5.0234,5.0247,5.0292,5.0309,5.0106,5.0107,5.0107,0,4.9451,4.9549,4.9548,4.962,4.9654,4.9628,4.9707,4.9738,4.98,4.9822,4.9792,4.9915,4.9942,5.0048,5.0081,5.0106,5.0125,5.009,5.0232,5.0246,5.0258,5.03,5.0318,5.0111,5.0111,5.011,5.011,0,4.9617,4.9684,4.9743,4.9804,4.9844,4.992,4.9928,4.9969,4.9962,4.9973,5.0061,5.0093,5.0151,5.0177,5.017,5.028,5.0262,5.0233,5.0178,5.028,5.032,5.0337,5.0117,5.0116,5.0114,5.0113,0,0,4.9783,4.9841,4.9862,4.9888,4.9936,4.9987,5.0059,5.0118,5.0151,5.0194,5.0252,5.0336,5.0308,5.034,5.0337,5.0385,5.0486,5.0349,5.035,5.037,5.0604,5.0624,5.0643,5.0472,5.0475,5.0478,5.0599,0,4.9912,5.0041,5.0041,5.0158,5.0218,5.0193,5.0255,5.029,5.0302,5.0352,5.0365,5.0423,5.0384,5.0403,5.0449,5.0464,5.0532,5.0455,5.0522,5.0525,5.051,5.0664,5.0686,5.0799,5.0615,5.0618,5.062,0,5.008,5.0128,5.0251,5.0287,5.0312,5.0369,5.042,5.047,5.0507,5.0512,5.0547,5.0535,5.0605,5.055,5.0645,5.0592,5.062,5.0631,5.0635,5.0639,5.0577,5.0669,5.0836,5.0852,5.0645,5.0643,5.0641,0,5.0184,5.028,5.0365,5.0388,5.0433,5.0472,5.0493,5.0527,5.0561,5.0605,5.0626,5.0678,5.0706,5.0745,5.0746,5.0706,5.084,5.0786,5.0843,5.0843,5.087,5.0868,5.1041,5.0893,5.0893,5.0893,5.0893,0,5.0327,5.0402,5.0411,5.0464,5.0546,5.0544,5.0625,5.0642,5.0672,5.0724,5.0706,5.0755,5.0755,5.0804,5.0806,5.0881,5.0895,5.0898,5.0897,5.0898,5.0897,5.0914,5.0905,5.0897,5.0896,5.0896,5.0895,0,5.0456,5.0467,5.0556,5.0592,5.0602,5.0661,5.0689,5.0737,5.0747,5.0813,5.0828,5.0843,5.09,5.0905,5.0971,5.0972,5.1062,5.1054,5.105,5.1047,5.1103,5.1096,5.129,5.1313,5.1154,5.1155,5.1157,0,5.0545,5.0602,5.0643,5.0677,5.0699,5.0755,5.0789,5.0789,5.0824,5.0869,5.0911,5.0966,5.101,5.1101,5.1116,5.1165,5.1156,5.1221,5.1163,5.1161,5.1153,5.1148,5.1152,5.1231,5.1233,5.1234,5.1235,0,5.07,5.0701,5.0752,5.0803,5.0844,5.0884,5.0921,5.095,5.0954,5.0994,5.1052,5.1086,5.1152,5.1206,5.1254,5.1272,5.1253,5.1253,5.1268,5.1269,5.1262,5.1263,5.1076,5.1248,5.1247,5.1246,5.1245,5.1245,5.081,5.0858,5.0893,5.0948,5.0976,5.1011,5.1056,5.1071,5.112,5.1174,5.1171,5.1234,5.1266,5.1328,5.135,5.1398,5.1376,5.1399,5.1404,5.1409,5.1413,5.1257,5.1407,5.1406,5.1406,5.1406,5.1405,0,5.096,5.0981,5.1032,5.1085,5.1127,5.1108,5.1147,5.1183,5.1239,5.1272,5.1315,5.1379,5.143,5.1449,5.1497,5.1531,5.1524,5.1544,5.154,5.1543,5.1431,5.1412,5.1549,5.1549,5.1549,5.1549,5.1549,5.1549,5.1044,5.1123,5.1128,5.1219,5.1238,5.13,5.1324,5.1355,5.138,5.1453,5.1495,5.1507,5.1533,5.1583,5.1628,5.1632,5.1649,5.1672,5.1672,5.1567,5.1552,5.1538,5.1519,5.1677,5.1677,5.178,5.1781,5.1782]}]]